STARLINK-5607, 55404

Orbit data source: Space-Track

STARLINK-5607, 55404 is a payload satellite owned by SpaceX/Seattle (US) in LEO that was launched on Tue, 31 Jan 2023 UTC via an FALCON 9 launch vehicle from the Air Force Western Test Range (AFWTR). Payload-class satellites include a variety of spacecraft equipped with specific instruments for various scientific and technological missions. These include communications satellites like Starlink; space stations such as the ISS; scientific satellites like the Hubble; Earth observation satellites from companies like Planet Labs, Umbra, and HawkEye 360; GPS; miniature CubeSats for education and research; and military/defense satellites.

Loading next visibility...
Identifier
55404, 2023-014P
Orbit
LEO
Country
Flag of USUS
Related business
Manufacturer
SpaceX/Seattle
Mission
Operational Commercial Communications
Bus & Motor
STARLINK, Unknown motor
Mass
305 kg wet, ~290 kg dry
Launch date (UTC)
2023-01-31 (3 years ago)
Launch vehicle
FALCON 9
Launch site
Air Force Western Test Range (AFWTR)
Object type
Payload
Rocket body
Debris
Shape & HBR
Box + 1 Pan, 10.1 m
Radar Cross Section
13.562 m², Large (>1 m²)

Expand to show TLE details & history
Last TLE update: 2 days ago

TLE from 2 days ago
0 STARLINK-5607
1 55404U 23014P   26171.37353006 -.00000004  00000-0  74551-5 0  9994
2 55404  69.9994 165.6661 0003354 268.0672  92.0103 14.98331235187430
Epoch: 2026-06-20T08:57Z
TLE epoch observation values (Epoch: 2026-06-20T08:57:52.997Z)
Latitude
-0°
Longitude
122.6062°
Altitude
574.558 km
Speed
7.574 km/s
True Right ascension
11h 02m 39s
True Declination
0° 00' 00"
Sunlit
Object was in daylight at epoch
Visualization orbit readout
Latitude
Unknown
Longitude
Unknown
Altitude
Unknown
Speed
Unknown
Apparent Right ascension
Unknown
Apparent Declination
Unknown
Sunlit
N/A
Visualization observer readout
Local Sidereal Time
21:26:21
Azimuth
Unknown
Elevation
Unknown
Doppler factor
Unknown
Orbital elements
Apogee altitude
572.331 km
Perigee altitude
567.67 km
Semi-major axis
6,948.137 km
Eccentricity
0.00034
Inclination
69.9994°
RAAN
165.6661°
Arg. of periapsis
268.0672°
True anomaly
92.04871°
Mean anomaly
92.0103°
Eccentric anomaly
92.0295°
Mean motion
3.74749 °/min
Orbital period
96.06 mins
BSTAR
0.0000074551
Loading maneuver chart data...
Computing Atmospheric mass density...

Documentation

Showing up to 5 results
|